Terminal Aerodrome Forecast
Issued by NWS

Home | Current Version | Previous Version | Text Only | Print | Product List | Glossary On
Versions: 1 2 3 4 5 6 7 8 9 10 11 12 13 14 15 16 17 18 19 20 21 22 23
000
FTUS42 KTBW 021549 AAA
TAFPIE
TAF AMD
KPIE 021549Z 0216/0312 23011KT P6SM VCSH SCT025 BKN050 OVC100
      TEMPO 0216/0217 VRB15G25KT 4SM +SHRA BKN025
     FM021700 23020G27KT 6SM -RA VCTS SCT025CB OVC050
     FM030200 21010KT P6SM -RA VCTS SCT025CB BKN035 OVC060=

USA.gov is the U.S. government's official web portal to all federal, state and local government web resources and services.